Location: Sternwarte-Kraichtal
(49.1689°N, 8.6996°E)
Time: 18:58:48
(UTC+02:00)

Vanguard 2 Rocket - Pass Details

Date: 04 June 2022
Orbit: 553 x 3323 km, 32.9° (Epoch: 02 July)

Event Time Altitude Azimuth Distance (km) Brightness Sun altitude
Rises 16:04:08 0° 266° (W) 7,283 12.1 48.7°
Reaches altitude 10° 16:09:31 10° 260° (W) 6,281 12.1 47.9°
Maximum altitude 16:26:45 39° 201° (SSW) 3,819 11.1 45.3°
Drops below altitude 10° 16:39:32 10° 139° (SE) 4,699 10.4 43.3°
Sets 16:42:54 0° 132° (SE) 5,355 10.6 42.8°
